Probability
10 13 6 6 3 3 3 6 3 0 0 0 0 0 0 3 0 0 3 6 13 13 13 13 13 13 16 6 6 10 10 10 10 16 13 16 10 10 10 6 6 6 6
13 10 6 6 6 6 3 0 0 0 0 0 0 0 3 0 0 0 3 3 6 16 16 16 19 19 16 13 6 6 6 10 13 16 16 10 10 10 10 10 6 6 6
10 10 10 6 6 6 3 3 0 0 0 0 0 0 0 3 0 0 0 6 6 6 10 10 16 10 13 13 13 6 6 6 10 10 10 10 10 13 10 6 6 6 6
10 10 10 6 6 3 3 0 0 3 3 0 0 0 0 0 3 3 0 0 3 3 10 6 10 10 10 10 10 13 13 13 6 10 10 10 10 10 10 6 6 6 6
3 6 6 6 3 3 3 0 0 3 0 0 0 0 0 0 0 0 3 0 0 0 10 13 10 16 10 10 10 10 6 6 13 6 6 6 10 10 6 6 6 6 6
3 3 3 3 0 0 0 0 0 3 3 3 0 0 0 0 0 3 3 3 6 0 0 6 13 10 10 10 10 10 6 6 6 13 6 6 10 10 6 6 6 6 6
3 3 3 3 3 0 6 6 3 3 3 3 3 3 0 0 0 3 3 10 10 10 6 3 10 13 10 6 10 3 6 10 6 3 10 13 13 10 6 6 6 6 6
3 3 3 6 10 10 6 6 6 10 6 3 3 3 3 0 3 0 3 3 3 10 6 3 3 10 6 6 3 6 13 10 3 6 6 10 13 10 10 6 10 6 6
0 0 3 3 3 3 10 6 6 6 6 6 3 3 3 3 3 0 3 0 0 10 13 13 10 6 3 10 10 0 3 6 3 10 10 10 10 10 13 10 10 10 6
0 0 0 0 0 3 3 3 3 10 6 6 6 6 3 3 3 3 3 3 3 6 10 6 6 6 10 10 6 6 0 0 6 3 10 10 6 10 16 13 16 13 10
0 0 0 0 0 0 0 3 3 3 3 3 3 3 3 3 0 0 0 3 3 3 6 10 13 13 13 13 13 3 0 0 3 6 3 10 6 6 16 13 13 10 10
0 0 0 0 0 0 0 0 3 3 3 3 3 3 3 3 0 0 0 3 0 0 6 6 13 10 10 13 3 0 0 0 0 0 0 6 10 6 13 13 10 10 10
0 0 0 0 0 0 0 0 3 3 3 3 3 3 3 3 3 0 0 0 0 0 0 6 13 16 6 13 6 0 0 0 0 0 0 0 6 6 13 6 6 10 10
0 0 0 0 0 0 0 0 3 3 3 3 3 3 3 3 3 0 0 0 0 0 0 0 3 3 3 3 0 0 3 0 0 0 0 0 0 0 6 3 6 6 13
0 0 0 0 0 0 0 0 0 3 3 3 3 3 3 3 3 0 0 0 0 0 0 0 0 3 0 3 0 0 0 3 0 0 0 0 0 0 0 0 0 3 6
0 0 0 0 0 0 0 0 0 0 0 3 6 6 3 3 3 6 3 3 0 0 0 0 0 0 0 0 0 0 0 0 0 0 0 0 0 0 0 0 0 0 0
0 0 0 0 0 0 0 0 0 0 0 0 0 0 3 3 6 6 6 3 3 0 0 0 0 0 0 0 0 0 0 0 0 0 0 0 0 0 0 0 0 0 0
0 0 0 0 0 0 0 0 0 0 0 0 0 0 0 3 6 6 6 3 3 3 0 0 0 0 0 0 0 0 0 0 0 0 0 0 0 0 0 0 0 0 0
0 0 0 3 0 0 0 0 0 0 0 0 0 0 0 0 3 3 3 3 3 0 0 0 0 0 0 0 0 0 0 0 0 0 0 0 0 0 0 0 0 0 0
0 0 0 0 0 0 0 0 0 0 0 0 0 0 0 0 0 3 3 3 3 0 0 0 0 0 0 0 0 0 0 0 0 0 0 0 0 0 0 0 0 0 0
0 0 0 0 0 0 0 0 0 0 0 0 0 0 3 0 0 0 0 0 0 0 0 0 0 0 0 0 0 0 0 0 0 0 0 0 0 0 0 0 0 0 0
0 0 0 0 0 0 0 0 0 0 0 0 0 3 0 0 0 0 0 0 0 0 0 0 0 0 0 0 0 0 0 0 0 0 0 0 0 0 0 0 0 0 0
0 0 0 0 0 0 0 0 0 0 0 0 3 0 0 0 0 0 0 0 0 0 0 0 0 0 0 0 0 0 0 0 0 0 0 0 0 0 0 0 0 0 0
0 0 0 0 0 0 0 0 0 0 0 0 0 0 0 0 0 0 0 0 0 0 0 0 0 0 0 0 0 0 0 0 0 0 0 0 0 0 0 0 0 0 0
0 0 0 0 0 0 0 0 0 0 0 0 0 0 0 0 0 0 0 0 0 0 0 0 0 0 0 0 0 0 0 0 0 0 0 0 0 0 0 0 0 0 0
0 0 0 0 0 0 0 0 0 0 0 0 0 0 0 0 0 0 0 0 0 0 0 0 0 0 0 0 0 0 0 0 0 0 0 0 0 0 0 0 0 0 0
Height
5850 5849 5849 5848 5848 5847 5847 5847 5846 5846 5846 5845 5845 5845 5845 5845 5845 5845 5845 5845 5845 5845 5845 5845 5846 5846 5846 5846 5846 5846 5845 5846 5846 5846 5846 5846 5846 5847 5847 5847 5848 5848 5849
5847 5846 5846 5845 5845 5844 5844 5843 5843 5843 5843 5842 5842 5842 5842 5842 5842 5842 5842 5842 5842 5842 5842 5842 5842 5842 5842 5842 5842 5842 5842 5842 5842 5843 5843 5843 5843 5843 5843 5844 5844 5844 5844
5844 5843 5842 5842 5841 5841 5840 5840 5840 5839 5839 5839 5839 5839 5839 5839 5839 5838 5838 5838 5838 5838 5839 5839 5839 5839 5839 5839 5839 5839 5839 5840 5839 5839 5839 5839 5839 5840 5840 5840 5840 5840 5840
5841 5840 5839 5839 5838 5838 5837 5837 5837 5836 5836 5836 5836 5836 5835 5835 5835 5835 5835 5835 5835 5835 5835 5835 5835 5835 5836 5836 5836 5836 5836 5836 5836 5836 5836 5836 5836 5836 5836 5836 5836 5836 5836
5838 5837 5836 5836 5835 5835 5835 5834 5833 5833 5833 5833 5833 5832 5832 5832 5832 5832 5832 5832 5832 5832 5832 5832 5832 5832 5832 5832 5832 5832 5832 5832 5832 5832 5832 5832 5832 5832 5832 5832 5832 5831 5831
5835 5834 5833 5832 5832 5832 5831 5831 5830 5830 5830 5830 5829 5829 5829 5829 5829 5828 5828 5829 5829 5829 5828 5828 5828 5828 5828 5829 5829 5829 5828 5828 5828 5828 5828 5828 5828 5828 5827 5827 5827 5827 5827
5832 5831 5830 5829 5828 5828 5828 5827 5827 5827 5826 5826 5826 5826 5825 5825 5825 5825 5825 5825 5825 5825 5825 5825 5825 5825 5825 5825 5825 5824 5824 5824 5824 5824 5824 5824 5824 5823 5823 5823 5823 5822 5822
5828 5827 5826 5825 5825 5824 5824 5824 5824 5823 5823 5823 5822 5822 5822 5823 5822 5822 5821 5821 5821 5821 5821 5821 5821 5821 5821 5821 5821 5820 5820 5820 5820 5820 5820 5819 5819 5819 5818 5818 5818 5817 5817
5825 5824 5823 5821 5820 5820 5820 5820 5820 5819 5819 5819 5818 5819 5819 5818 5818 5818 5817 5817 5817 5817 5817 5817 5817 5817 5817 5816 5816 5816 5816 5816 5816 5815 5815 5815 5814 5814 5813 5813 5813 5812 5812
5821 5820 5819 5818 5817 5816 5816 5816 5816 5815 5815 5815 5815 5814 5814 5814 5814 5814 5814 5813 5813 5813 5813 5813 5813 5813 5813 5812 5812 5812 5812 5811 5811 5811 5810 5810 5809 5809 5808 5808 5808 5807 5807
5817 5816 5815 5814 5813 5812 5812 5812 5812 5812 5811 5811 5811 5810 5810 5809 5809 5809 5809 5809 5808 5808 5808 5808 5808 5808 5808 5808 5807 5807 5807 5807 5807 5806 5805 5805 5804 5804 5803 5803 5802 5802 5802
5814 5813 5811 5810 5809 5809 5808 5808 5808 5808 5807 5807 5807 5806 5806 5805 5805 5804 5804 5804 5804 5804 5803 5803 5803 5803 5803 5803 5803 5803 5803 5802 5802 5801 5801 5800 5799 5799 5798 5798 5797 5796 5796
5810 5809 5808 5807 5806 5805 5804 5804 5804 5803 5803 5803 5802 5802 5802 5801 5800 5800 5800 5799 5799 5798 5798 5798 5798 5798 5798 5798 5798 5798 5798 5798 5797 5796 5795 5795 5794 5793 5793 5792 5791 5791 5790
5807 5805 5804 5803 5802 5801 5800 5799 5799 5799 5799 5798 5798 5798 5797 5796 5796 5795 5795 5794 5793 5793 5793 5793 5793 5793 5793 5793 5793 5793 5793 5793 5792 5792 5790 5789 5789 5788 5787 5786 5785 5784 5783
5803 5801 5800 5799 5798 5797 5796 5795 5795 5794 5794 5794 5793 5793 5792 5792 5791 5790 5789 5788 5788 5787 5787 5787 5787 5788 5788 5788 5788 5788 5788 5787 5787 5786 5785 5784 5783 5782 5781 5780 5779 5777 5776
5799 5797 5796 5794 5793 5792 5791 5791 5790 5790 5790 5789 5789 5788 5788 5787 5786 5785 5784 5783 5782 5781 5781 5781 5782 5782 5782 5783 5783 5783 5782 5782 5781 5781 5780 5779 5778 5776 5775 5774 5772 5770 5767
5794 5793 5791 5790 5789 5787 5787 5786 5785 5785 5785 5784 5784 5784 5783 5782 5781 5780 5779 5778 5777 5776 5776 5776 5777 5777 5777 5777 5777 5777 5777 5776 5776 5775 5774 5773 5772 5770 5769 5767 5766 5764 5762
5789 5788 5787 5785 5784 5783 5782 5781 5780 5780 5779 5779 5779 5779 5778 5777 5776 5775 5774 5773 5772 5771 5771 5771 5771 5772 5772 5772 5772 5772 5771 5770 5770 5769 5768 5767 5765 5764 5762 5761 5760 5758 5757
5785 5783 5782 5780 5779 5778 5777 5776 5775 5775 5774 5774 5774 5773 5773 5772 5771 5771 5769 5768 5767 5767 5766 5766 5766 5767 5767 5767 5767 5766 5766 5765 5764 5763 5762 5761 5759 5757 5756 5755 5753 5752 5751
5779 5778 5777 5775 5774 5773 5772 5771 5770 5769 5769 5768 5768 5768 5768 5767 5767 5766 5765 5763 5762 5762 5761 5761 5761 5762 5761 5761 5761 5761 5760 5759 5758 5757 5756 5754 5752 5751 5749 5748 5747 5746 5746
5774 5773 5771 5770 5769 5768 5766 5766 5765 5764 5763 5763 5763 5763 5762 5762 5761 5761 5760 5759 5758 5757 5757 5757 5757 5756 5756 5756 5756 5755 5754 5753 5752 5750 5749 5747 5745 5744 5743 5741 5740 5740 5739
5768 5767 5766 5765 5764 5762 5761 5760 5760 5759 5758 5758 5757 5757 5757 5756 5756 5756 5755 5754 5753 5753 5752 5752 5752 5751 5751 5751 5750 5749 5748 5747 5746 5745 5742 5740 5738 5737 5736 5735 5734 5733 5732
5762 5761 5760 5759 5758 5757 5756 5755 5754 5753 5753 5752 5752 5752 5751 5751 5751 5750 5750 5749 5748 5748 5748 5747 5747 5746 5746 5745 5745 5744 5742 5741 5739 5737 5735 5734 5732 5730 5729 5728 5727 5726 5725
5755 5754 5753 5753 5752 5751 5750 5750 5748 5748 5747 5747 5747 5746 5746 5745 5745 5745 5744 5744 5743 5743 5743 5742 5742 5741 5740 5739 5738 5737 5736 5734 5733 5731 5729 5727 5725 5723 5722 5720 5719 5718 5717
5749 5748 5747 5747 5746 5745 5745 5744 5743 5742 5741 5741 5741 5741 5741 5740 5740 5739 5739 5739 5738 5738 5737 5736 5736 5735 5734 5733 5732 5731 5729 5728 5726 5724 5722 5720 5718 5717 5715 5713 5712 5711 5710
5743 5742 5741 5741 5740 5739 5739 5738 5737 5736 5736 5735 5735 5735 5735 5735 5734 5734 5733 5733 5732 5732 5731 5730 5730 5729 5728 5727 5725 5724 5722 5721 5719 5717 5715 5713 5711 5709 5708 5706 5705 5703 5702
Wind_Speed
13 13 13 13 13 14 14 14 14 13 13 13 13 13 13 13 13 13 14 14 14 14 14 14 13 13 13 13 14 14 14 14 14 14 14 15 15 15 16 17 17 18 19
13 13 14 14 14 15 14 14 14 14 14 14 13 13 13 13 13 13 13 13 14 15 15 14 14 14 14 14 14 14 14 13 14 15 15 16 15 15 16 16 17 17 18
13 13 13 13 14 14 14 13 13 13 13 13 13 13 13 13 13 13 13 13 13 14 14 15 15 15 14 14 13 13 13 14 14 15 15 16 16 16 17 17 18 18 18
13 13 13 13 13 13 13 13 13 13 13 13 13 13 13 13 13 13 14 14 13 14 14 15 15 15 14 14 14 14 14 15 15 15 15 16 17 17 17 17 18 19 19
13 13 13 13 12 12 12 13 13 13 14 14 13 13 14 14 13 13 13 14 13 13 14 14 14 14 15 15 15 15 15 16 16 16 16 16 17 17 17 17 18 19 19
12 12 13 13 13 13 12 13 13 13 14 14 14 13 14 14 13 13 13 14 13 13 14 14 14 15 15 15 16 16 16 16 17 17 17 17 18 18 17 17 18 19 19
12 12 13 13 13 13 13 13 13 13 13 13 13 13 13 13 13 13 13 14 14 14 15 15 15 15 15 16 16 16 16 17 17 17 17 17 17 18 18 18 18 19 20
12 13 13 14 14 14 14 14 14 14 13 13 13 14 14 14 14 14 14 14 15 15 15 15 15 15 15 16 16 17 17 17 17 18 18 18 18 18 18 18 19 19 20
13 14 14 13 14 14 14 14 14 14 13 14 13 13 14 14 15 15 15 16 16 16 16 16 16 16 16 16 17 17 17 17 18 18 19 18 18 19 18 18 19 19 20
13 14 14 13 13 13 13 14 14 14 14 14 13 13 14 14 15 15 16 16 17 17 17 17 17 16 16 16 17 17 17 18 18 18 19 19 19 19 19 19 20 20 20
13 13 13 13 13 13 13 13 14 14 14 14 14 13 14 14 15 15 16 16 17 18 18 18 18 18 17 17 17 17 17 18 19 19 19 19 20 19 20 20 20 20 21
13 13 13 13 13 13 14 14 14 14 14 14 14 14 14 14 15 16 16 17 17 18 18 19 19 19 18 18 18 17 17 17 18 19 20 19 19 20 20 20 20 21 21
14 14 14 14 14 14 14 15 14 14 14 14 14 14 14 14 15 16 16 18 18 18 18 19 19 19 18 18 18 18 18 18 18 18 19 19 20 20 20 20 21 21 22
15 15 14 15 15 14 15 14 15 15 15 14 15 15 15 16 16 16 16 18 19 19 19 19 19 18 18 18 19 19 19 18 18 19 19 19 20 21 21 20 20 21 22
15 15 15 16 16 15 15 15 15 16 15 15 15 15 16 16 16 16 17 18 19 20 20 19 19 19 19 19 19 19 19 19 19 19 20 20 20 21 21 22 22 22 22
15 15 16 17 17 16 16 16 16 16 16 16 15 15 16 16 16 17 17 17 18 19 19 18 18 18 19 19 19 19 20 20 20 20 20 20 20 20 21 22 22 22 22
16 16 16 17 17 16 16 17 17 17 17 17 16 16 16 16 16 17 17 17 17 17 17 17 18 18 19 19 19 19 20 20 20 20 20 21 20 21 21 21 21 20 20
16 16 16 16 17 17 17 17 17 17 18 18 17 17 17 16 16 17 17 17 17 17 17 17 18 19 19 20 20 19 20 20 20 20 20 20 21 21 21 21 21 21 21
17 17 17 17 17 17 17 17 18 18 19 19 18 18 17 17 17 17 17 17 17 17 18 17 17 18 19 19 20 20 20 19 20 20 21 21 21 21 21 21 20 20 20
18 17 17 17 17 17 17 17 17 18 18 19 19 18 17 17 17 17 18 17 17 17 17 17 17 18 18 18 19 19 19 20 20 21 21 21 22 21 21 21 20 20 20
18 18 18 18 17 17 17 17 17 17 17 18 19 18 18 18 18 18 18 17 17 17 17 17 17 18 18 17 18 19 19 19 20 21 21 21 21 21 21 21 21 21 21
19 18 18 18 18 18 17 18 17 17 17 18 18 18 18 18 17 18 18 17 16 16 16 17 17 18 18 18 18 18 19 20 20 21 22 22 22 22 22 22 21 21 21
20 19 19 19 18 18 18 18 18 18 18 18 18 18 18 18 18 18 17 17 16 16 17 17 17 17 18 18 19 19 20 21 21 21 22 22 22 22 22 22 22 22 22
19 19 19 19 18 18 18 18 18 18 18 18 18 18 18 18 18 17 17 17 17 17 17 18 18 18 19 19 20 20 21 21 22 22 22 22 22 22 22 23 23 23 23
20 19 19 19 18 18 18 18 18 18 18 18 18 18 18 17 17 17 18 18 18 17 18 18 18 19 19 19 20 20 21 22 22 22 23 23 22 22 23 23 23 24 24
21 20 19 19 19 18 18 18 18 18 18 18 19 19 19 18 18 18 19 18 19 19 19 19 20 20 20 20 21 21 21 22 22 22 22 22 22 22 22 22 23 23 23
Wind_Direction
279 277 273 268 269 270 271 269 269 264 263 262 259 260 259 259 258 259 258 258 255 255 255 255 257 254 257 258 255 258 259 260 257 259 262 262 262 260 257 256 255 254 255
280 279 278 271 267 267 267 269 267 266 263 262 260 260 260 259 256 259 259 257 257 255 254 255 257 256 257 258 256 254 257 259 263 263 261 261 260 259 259 259 258 258 259
280 279 277 275 267 263 263 265 266 266 265 261 263 265 261 260 259 258 257 257 258 255 252 254 258 258 256 256 257 258 260 262 262 262 262 262 260 260 260 260 259 260 261
281 279 276 272 270 268 263 262 263 266 268 267 267 264 261 262 262 260 257 256 258 256 255 257 259 258 258 258 259 260 262 262 262 263 264 263 262 261 262 261 261 261 261
281 280 275 272 270 267 265 262 265 268 268 268 267 265 264 261 262 263 259 255 257 258 259 260 261 259 259 258 258 261 263 264 263 264 264 265 264 264 263 262 262 262 261
284 281 277 273 268 267 267 268 270 269 268 267 266 266 266 262 262 263 261 259 260 260 260 262 262 260 258 259 261 262 264 265 265 265 266 266 266 266 266 265 264 262 260
283 282 279 274 271 270 267 267 270 268 267 267 266 266 266 265 264 264 262 262 261 262 263 262 262 262 260 260 262 263 263 265 267 266 267 267 268 270 270 268 266 264 262
280 282 281 278 273 270 267 267 267 268 269 269 266 266 267 266 265 265 263 261 261 262 262 262 263 263 263 262 262 264 264 265 267 268 267 267 268 269 269 268 267 266 264
282 282 283 278 275 270 266 266 267 266 265 266 266 267 268 267 266 265 265 264 263 262 262 263 263 262 265 263 264 265 265 266 267 267 269 269 270 270 269 268 268 266 264
283 282 281 280 277 271 266 265 267 268 267 267 267 269 271 270 268 267 267 266 265 263 263 264 263 265 265 265 266 266 265 266 266 268 270 271 271 269 268 268 269 267 266
284 283 280 278 277 271 268 267 267 268 267 266 267 270 272 271 270 269 267 267 266 264 263 263 263 264 264 265 268 266 266 266 265 268 270 271 270 269 268 268 268 268 267
285 283 281 281 278 273 268 267 266 265 266 267 268 269 272 273 272 270 268 267 267 265 264 264 264 264 264 265 267 267 267 267 267 270 271 270 270 269 269 270 269 268 267
285 286 284 284 281 274 270 268 265 265 266 268 269 270 271 275 276 275 271 268 269 267 266 265 264 265 263 264 265 267 268 268 269 272 273 271 271 270 269 270 270 269 267
285 286 284 285 282 277 273 270 266 266 267 268 270 271 273 275 278 277 275 271 269 268 267 266 263 261 262 264 266 268 269 269 271 272 273 272 272 271 270 270 270 270 268
285 285 281 282 281 278 275 273 269 267 268 271 272 272 274 275 275 275 277 276 272 267 267 266 262 261 263 265 267 269 270 270 271 272 274 274 275 273 272 273 274 273 269
283 285 282 280 280 278 276 275 271 268 267 270 271 273 275 276 277 275 279 278 276 270 267 264 262 263 264 265 267 269 271 271 270 272 274 275 276 276 275 275 275 275 272
283 283 284 281 280 278 277 275 272 268 266 268 271 273 274 275 277 279 281 279 276 273 272 267 263 262 263 264 267 269 272 272 271 273 275 277 277 276 277 275 274 274 273
284 283 283 282 280 278 276 275 273 269 266 267 269 271 272 274 277 278 280 279 274 272 271 268 267 265 264 265 268 270 273 274 272 274 277 280 280 277 275 275 274 272 269
283 283 282 283 281 279 276 275 273 270 267 267 269 271 272 274 276 277 280 280 275 272 270 267 267 268 267 268 270 272 274 275 275 276 279 281 281 280 278 277 274 271 269
281 283 283 283 282 281 278 277 276 271 267 268 269 271 271 273 275 277 279 280 277 273 271 267 267 268 269 271 272 275 275 276 276 278 281 282 282 281 279 277 276 273 269
280 279 280 282 282 280 279 278 277 273 268 267 267 269 270 271 273 277 279 280 278 273 270 269 270 269 270 272 274 275 277 278 279 280 283 283 282 280 279 278 277 275 272
279 278 279 280 280 281 280 277 276 274 270 267 267 269 270 271 273 276 278 278 276 273 272 271 272 271 272 273 275 278 280 279 280 283 284 281 279 280 280 278 277 276 275
277 277 276 278 278 279 280 278 275 275 271 268 268 268 270 272 273 275 275 275 274 274 275 274 274 274 274 275 276 279 280 280 282 284 285 282 281 281 279 278 278 277 276
274 275 275 276 277 277 278 278 276 276 273 268 267 268 270 271 271 271 273 275 274 273 275 276 275 276 277 277 278 279 280 282 285 286 286 285 283 281 280 279 278 278 276
275 277 276 274 275 276 276 277 277 277 273 268 268 269 269 271 273 272 272 274 275 274 275 277 277 277 279 279 280 281 283 285 285 286 286 285 283 282 281 280 279 277 275
274 276 278 274 273 274 276 277 277 276 275 271 269 268 267 270 273 273 272 272 275 274 274 276 277 278 280 282 283 283 284 285 286 287 287 285 283 283 282 280 278 277 276